Flag for U.S.A. Weather past 2 weeks in Shiprock, New Mexico, U.S.A.

Now
67 °F

Overcast.


Feels Like: 67 °F
Forecast: 70 / 89 °F
Wind: No wind

Location: Four Corners Regional Airport

Current Time: Jul 29, 2014 at 9:36:46 AM

Latest Report: Jul 29, 2014 at 8:53 AM


Visibility: 10 mi

Pressure: 30.17 "Hg

Humidity: 76%

Dew point: 59 °F

Location of ShiprockLocation

Historic Weather in Shiprock — Graph

°F

Shiprock temperature yesterday

Maximum temperature yesterday: 87 °F (at 3:53 PM)
Minimum temperature yesterday: 64 °F (at 6:53 AM)
Average temperature yesterday: 71 °F

Past Weeks' High & Low Weather Summary

 TemperatureHumidityPressure
High97 °F (Jul 22, 5:53 PM)87% (Jul 28, 12:53 AM)30.24 "Hg (Jul 28, 12:53 AM)
Low57 °F (Jul 22, 5:53 AM)7% (Jul 22, 5:53 PM)29.73 "Hg (Jul 17, 6:53 PM)
Average79 °F34%29.96 "Hg
* Reported Jul 14 7:53 AM — Jul 29 7:53 AM, Shiprock, Weather by CustomWeather, © 2014

Note: Actual official high and low records may vary slightly from our data, if they occured in-between our weather recording intervals... More about our weather records

Advertising

Shiprock weather history for previous 24 hours

 ConditionsComfort  
Time TempWeatherWind HumidityBarometerVisibility
7:53 AM
Jul 29
65 °FSunny.No wind81%30.16 "Hg10 mi
6:53 AM63 °FOvercast.No wind87%30.16 "Hg10 mi
5:53 AM64 °FPassing clouds.6 mph84%30.14 "Hg10 mi
4:53 AM64 °FMostly cloudy.5 mph84%30.12 "Hg10 mi
3:53 AM64 °FOvercast.6 mph81%30.09 "Hg10 mi
2:53 AM64 °FLight rain. Overcast.3 mph81%30.13 "Hg10 mi
1:53 AM64 °FOvercast.7 mph84%30.13 "Hg10 mi
12:53 AM64 °FMostly cloudy.3 mph87%30.15 "Hg10 mi
11:53 PM
Jul 28
64 °FLight rain. Mostly cloudy.3 mph78%30.17 "Hg3 mi
10:53 PM65 °FMostly cloudy.8 mph76%30.18 "Hg10 mi
9:53 PM67 °FPassing clouds.12 mph73%30.19 "Hg10 mi
8:53 PM66 °FSunny.10 mph75%30.15 "Hg10 mi
7:53 PM67 °FSunny.7 mph73%30.16 "Hg10 mi
6:53 PM68 °FPassing clouds.14 mph70%30.14 "Hg10 mi
5:53 PM70 °FThundershowers. Mostly cloudy.23 mph71%30.14 "Hg10 mi
4:53 PM77 °FRain. Mostly cloudy.8 mph50%30.08 "Hg7 mi
3:53 PM87 °FPartly sunny.8 mph28%30.06 "Hg10 mi
2:53 PM84 °FPassing clouds.7 mph35%30.09 "Hg10 mi
1:53 PM85 °FSunny.8 mph34%30.12 "Hg10 mi
12:53 PM82 °FSunny.8 mph38%30.16 "Hg10 mi
11:53 AM79 °FScattered clouds.7 mph41%30.20 "Hg10 mi
10:53 AM75 °FScattered clouds.6 mph50%30.23 "Hg10 mi
9:53 AM71 °FOvercast.5 mph61%30.24 "Hg10 mi
Weather by CustomWeather, © 2014

See weather overviewHow to use our weather pages